SL-16 R/B, 22566

Orbit data source: Space-Track

SL-16 R/B, 22566 is space debris in LEO originally from a launch on Fri, 26 Mar 1993 UTC launched from the Tyuratam Missile And Space Complex (TTMTR). Debris objects in space refer to the collection of defunct objects orbiting the Earth. Examples of debris include non-operational satellites, rocket bodies, and fragments generated from explosions, collisions, or faulty payload assembly.

Loading next visibility...
Identifier
22566, 1993-016B
Orbit
LEO
Country
Flag of CISCIS
Related business
Manufacturer
Yuzhnoe
Mission
Spacecraft
Bus & Motor
11S772, Unknown motor
Mass
9,000 kg wet, 9,000 kg dry
Launch date (UTC)
1993-03-26 (33 years ago)
Launch vehicle
Unknown
Launch site
Tyuratam Missile And Space Complex (TTMTR)
Object type
Payload
Rocket body
Debris
Shape & HBR
Cyl, 5.2 m
Radar Cross Section
37.829 m², Large (>1 m²)

Expand to show TLE details & history
Last TLE update: 16 hours ago

TLE from 16 hours ago
0 SL-16 R/B
1 22566U 93016B   25353.20754429  .00000250  00000-0  15270-3 0  9996
2 22566  71.0079  24.2194 0008012  85.0882 275.1155 14.15288648690784
Epoch: 2025-12-19T04:58Z
TLE epoch observation values (Epoch: 2025-12-19T04:58:51.826Z)
Latitude
-0.00007°
Longitude
-138.54857°
Altitude
843.22 km
Speed
7.432 km/s
True Right ascension
01h 36m 52s
True Declination
0° 00' 00"
Sunlit
Object was in daylight at epoch
Visualization orbit readout
Latitude
Unknown
Longitude
Unknown
Altitude
Unknown
Speed
Unknown
Apparent Right ascension
Unknown
Apparent Declination
Unknown
Sunlit
N/A
Visualization observer readout
Local Sidereal Time
19:30:51
Azimuth
Unknown
Elevation
Unknown
Doppler factor
Unknown
Orbital elements
Apogee altitude
845.037 km
Perigee altitude
833.472 km
Semi-major axis
7,217.391 km
Eccentricity
0.0008
Inclination
71.0079°
RAAN
24.2194°
Arg. of periapsis
85.0882°
True anomaly
275.02405°
Mean anomaly
275.1155°
Eccentric anomaly
275.06977°
Mean motion
3.53975 °/min
Orbital period
101.7 mins
BSTAR
0.0001527
Loading maneuver chart data...
Computing Atmospheric mass density...
Loading historical data...
Loading historical data...
Loading historical data...
Loading historical data...
Loading historical data...
Loading historical data...
Loading historical data...

Documentation

Showing up to 5 results
|